WIF36M ENBO-ENSK

Flight info

Callsign WIF36M
Flight time 0h 23m
Altitude 15000
Route IBVIS DCT LOSSE
Aircraft DH8B/M-SDFGR/S

Departure

Time 2026-04-27 10:32
Airport Bodø Airport (ENBO)

Arrival

Time 2026-04-27 10:56
Airport Stokmarknes Airport, Skagen (ENSK)
Time Latitude Longitude Altitude Speed Heading
2026-04-27 10:23 67.27239 14.36528 42 ft 0 kts 29°
2026-04-27 10:30 67.27240 14.36529 42 ft 1 kts 31°
2026-04-27 10:30 67.27232 14.36547 41 ft 6 kts 210°
2026-04-27 10:31 67.27185 14.36430 43 ft 12 kts 216°
2026-04-27 10:31 67.27082 14.36436 40 ft 20 kts 167°
2026-04-27 10:31 67.26958 14.36506 36 ft 11 kts 167°
2026-04-27 10:31 67.26911 14.36400 35 ft 33 kts 259°
2026-04-27 10:32 67.26777 14.34795 31 ft 135 kts 258°
2026-04-27 10:32 67.26556 14.32115 456 ft 161 kts 263°
2026-04-27 10:32 67.26360 14.29214 1224 ft 167 kts 267°
2026-04-27 10:32 67.26530 14.26316 1962 ft 166 kts 304°
2026-04-27 10:33 67.27382 14.24325 2737 ft 168 kts 331°
2026-04-27 10:33 67.28512 14.23524 3522 ft 171 kts 352°
2026-04-27 10:33 67.29676 14.24228 4290 ft 177 kts 22°
2026-04-27 10:33 67.30830 14.25321 5084 ft 176 kts
2026-04-27 10:34 67.32036 14.25897 5867 ft 176 kts
2026-04-27 10:34 67.33245 14.26555 6668 ft 179 kts 11°
2026-04-27 10:34 67.34452 14.27380 7432 ft 180 kts 12°
2026-04-27 10:34 67.35655 14.28213 8200 ft 182 kts 12°
2026-04-27 10:35 67.36902 14.29074 9005 ft 184 kts 12°
2026-04-27 10:35 67.38158 14.29936 9614 ft 195 kts 12°
2026-04-27 10:35 67.39498 14.30857 10207 ft 202 kts 12°
2026-04-27 10:35 67.40883 14.31809 10765 ft 209 kts 12°
2026-04-27 10:36 67.42296 14.32781 11346 ft 212 kts 12°
2026-04-27 10:36 67.43728 14.33770 11932 ft 213 kts 12°
2026-04-27 10:36 67.45160 14.34769 12530 ft 213 kts 11°
2026-04-27 10:36 67.46596 14.35775 13136 ft 213 kts 11°
2026-04-27 10:37 67.48029 14.36765 13748 ft 213 kts 10°
2026-04-27 10:37 67.49460 14.37751 14338 ft 212 kts 10°
2026-04-27 10:37 67.50884 14.38741 14856 ft 211 kts
2026-04-27 10:37 67.52310 14.39733 15280 ft 216 kts
2026-04-27 10:38 67.53818 14.40756 15336 ft 231 kts
2026-04-27 10:38 67.55398 14.41838 15352 ft 243 kts 10°
2026-04-27 10:38 67.57061 14.42997 15341 ft 251 kts 10°
2026-04-27 10:38 67.58765 14.44187 15341 ft 256 kts 10°
2026-04-27 10:39 67.59936 14.45001 15342 ft 258 kts 10°
2026-04-27 10:39 67.62245 14.46607 15340 ft 255 kts 11°
2026-04-27 10:39 67.63925 14.47802 15327 ft 247 kts 11°
2026-04-27 10:39 67.65567 14.48960 15318 ft 242 kts 10°
2026-04-27 10:40 67.66662 14.49721 15317 ft 240 kts 10°
2026-04-27 10:40 67.68270 14.50840 15316 ft 238 kts 10°
2026-04-27 10:40 67.69841 14.51949 15306 ft 236 kts 10°
2026-04-27 10:40 67.71424 14.53073 15310 ft 235 kts 10°
2026-04-27 10:41 67.73004 14.54182 15308 ft 234 kts 10°
2026-04-27 10:41 67.74580 14.55287 15308 ft 234 kts 10°
2026-04-27 10:41 67.76151 14.56399 15307 ft 234 kts 10°
2026-04-27 10:41 67.77720 14.57517 15305 ft 233 kts 10°
2026-04-27 10:42 67.79293 14.58632 15303 ft 233 kts 10°
2026-04-27 10:42 67.80863 14.59740 15301 ft 233 kts 10°
2026-04-27 10:42 67.82430 14.60851 15297 ft 233 kts 10°
2026-04-27 10:42 67.83997 14.61971 15295 ft 233 kts 10°
2026-04-27 10:43 67.85567 14.63094 15294 ft 234 kts 10°
2026-04-27 10:43 67.87151 14.64216 15298 ft 238 kts 10°
2026-04-27 10:43 67.88760 14.65356 15304 ft 241 kts 11°
2026-04-27 10:43 67.90387 14.66521 15308 ft 243 kts 11°
2026-04-27 10:44 67.92006 14.67686 15315 ft 245 kts 11°
2026-04-27 10:44 67.93652 14.68867 15316 ft 246 kts 11°
2026-04-27 10:44 67.95305 14.70051 15305 ft 246 kts 11°
2026-04-27 10:44 67.96960 14.71241 15305 ft 247 kts 11°
2026-04-27 10:45 67.98625 14.72291 15309 ft 245 kts
2026-04-27 10:45 68.00306 14.73118 15304 ft 246 kts
2026-04-27 10:45 68.01988 14.73986 15305 ft 246 kts
2026-04-27 10:45 68.03670 14.74891 15309 ft 246 kts
2026-04-27 10:46 68.05350 14.75771 15307 ft 246 kts
2026-04-27 10:46 68.07034 14.76631 15295 ft 247 kts
2026-04-27 10:46 68.08714 14.77506 15045 ft 243 kts
2026-04-27 10:46 68.10356 14.78384 14784 ft 239 kts
2026-04-27 10:47 68.11987 14.79242 14523 ft 237 kts
2026-04-27 10:47 68.13582 14.80065 14264 ft 236 kts
2026-04-27 10:47 68.15194 14.80908 13986 ft 236 kts
2026-04-27 10:47 68.16803 14.81764 13687 ft 235 kts
2026-04-27 10:48 68.18408 14.82614 13391 ft 235 kts
2026-04-27 10:48 68.20016 14.83455 12999 ft 238 kts
2026-04-27 10:48 68.21625 14.84299 12458 ft 234 kts
2026-04-27 10:48 68.23218 14.85146 11985 ft 230 kts
2026-04-27 10:49 68.24797 14.85983 11693 ft 231 kts
2026-04-27 10:49 68.26370 14.86822 11415 ft 231 kts
2026-04-27 10:49 68.27952 14.87663 11101 ft 232 kts
2026-04-27 10:49 68.29538 14.88501 10708 ft 230 kts
2026-04-27 10:50 68.31130 14.89345 10316 ft 236 kts
2026-04-27 10:50 68.32753 14.90221 9918 ft 239 kts
2026-04-27 10:50 68.34385 14.91094 9510 ft 239 kts
2026-04-27 10:50 68.36032 14.91529 9111 ft 237 kts 357°
2026-04-27 10:51 68.37660 14.92100 8708 ft 238 kts 16°
2026-04-27 10:51 68.39197 14.93772 8295 ft 238 kts 22°
2026-04-27 10:51 68.40676 14.95593 7913 ft 227 kts 22°
2026-04-27 10:51 68.42115 14.97021 7440 ft 220 kts 15°
2026-04-27 10:52 68.43518 14.98068 6902 ft 200 kts 13°
2026-04-27 10:52 68.44821 14.98972 6314 ft 188 kts 13°
2026-04-27 10:52 68.46067 14.99820 5707 ft 182 kts 13°
2026-04-27 10:52 68.47282 15.00632 5119 ft 178 kts 12°
2026-04-27 10:53 68.48509 15.01449 4522 ft 190 kts 13°
2026-04-27 10:53 68.51043 15.02851 3615 ft 164 kts
2026-04-27 10:53 68.52148 15.02696 3231 ft 157 kts 352°
2026-04-27 10:54 68.53224 15.02032 2735 ft 160 kts 342°
2026-04-27 10:54 68.54283 15.00967 2144 ft 165 kts 339°
2026-04-27 10:54 68.55302 14.99713 1672 ft 153 kts 335°
2026-04-27 10:54 68.56188 14.98386 1212 ft 140 kts 329°
2026-04-27 10:55 68.56952 14.97054 990 ft 121 kts 328°
2026-04-27 10:55 68.57687 14.96528 841 ft 107 kts 15°
2026-04-27 10:55 68.58159 14.98073 660 ft 125 kts 79°
2026-04-27 10:55 68.58093 15.00650 117 ft 140 kts 89°
2026-04-27 10:56 68.58080 15.02604 16 ft 37 kts 93°
2026-04-27 10:56 68.58072 15.02976 15 ft 19 kts 95°
2026-04-27 10:56 68.58024 15.03045 17 ft 7 kts 179°
2026-04-27 10:56 68.57985 15.03092 18 ft 8 kts 88°
2026-04-27 10:57 68.57985 15.03121 18 ft 0 kts 89°